User: anonymous   Login
Location: Newark
(59.4564°N, 26.6917°E)
Time: 23:57:57
(UTC+00:00)
Language:

S-56A Canister/Altair - Orbit

View from above orbital plane
View from above orbital plane
View from above satellite
View from above satellite

Ground track
Ground track

The orbit data is extracted from the following two-line orbital elements,

1    82U 61004B   19318.33980077 -.00000005 +00000-0 +41614-4 0  9996
2    82 038.8555 278.5998 1173614 120.5471 251.6291 12.26055726781285
Epoch (UTC): 14 November 2019 08:09:18
Eccentricity: 0.1173614
inclination: 38.8555°
perigee height: 634 km
apogee height: 2498 km
right ascension of ascending node: 278.5998°
argument of perigee: 120.5471°
revolutions per day: 12.26055726
mean anomaly at epoch: 251.6291°
orbit number at epoch: 78128

The dashed part of the orbit path shows where the satellite is in the earth's shadow,  

DLR